TimeCDT,TemperatureF,Dew PointF,Humidity,Sea Level PressureIn,VisibilityMPH,Wind Direction,Wind SpeedMPH,Gust SpeedMPH,PrecipitationIn,Events,Conditions,WindDirDegrees,DateUTC
12:07 AM,26.6,17.6,69,30.00,7.0,ENE,3.5,-,N/A,Snow,Light Snow,60,2014-04-04 05:07:00
12:28 AM,24.8,19.4,80,30.00,4.0,NNE,3.5,-,N/A,Snow,Light Snow,20,2014-04-04 05:28:00
12:48 AM,24.8,17.6,74,30.00,5.0,Calm,Calm,-,N/A,Snow,Light Snow,0,2014-04-04 05:48:00
1:07 AM,24.8,19.4,80,29.99,7.0,Calm,Calm,-,N/A,Snow,Light Snow,0,2014-04-04 06:07:00
1:27 AM,24.8,17.6,74,29.98,10.0,NE,4.6,-,N/A,Snow,Light Snow,40,2014-04-04 06:27:00
1:48 AM,24.8,19.4,80,29.98,10.0,Calm,Calm,-,N/A,,Overcast,0,2014-04-04 06:48:00
2:07 AM,24.8,19.4,80,29.96,7.0,Calm,Calm,-,N/A,Snow,Light Snow,0,2014-04-04 07:07:00
2:27 AM,24.8,17.6,74,29.96,5.0,North,3.5,-,N/A,Snow,Light Snow,360,2014-04-04 07:27:00
2:48 AM,24.8,17.6,74,29.95,4.0,North,3.5,-,N/A,Snow,Light Snow,350,2014-04-04 07:48:00
3:07 AM,24.8,19.4,80,29.95,3.0,Calm,Calm,-,N/A,Snow,Light Snow,0,2014-04-04 08:07:00
3:27 AM,24.8,19.4,80,29.94,5.0,Calm,Calm,-,N/A,Snow,Light Snow,0,2014-04-04 08:27:00
3:47 AM,24.8,19.4,80,29.94,4.0,Calm,Calm,-,N/A,Snow,Light Snow,0,2014-04-04 08:47:00
4:08 AM,24.8,19.4,80,29.93,1.8,NNW,4.6,-,N/A,Snow,Light Snow,340,2014-04-04 09:08:00
4:28 AM,24.8,21.2,86,29.93,2.5,NNW,4.6,-,N/A,Snow,Light Snow,340,2014-04-04 09:28:00
4:48 AM,24.8,21.2,86,29.92,2.5,NNW,4.6,-,N/A,Snow,Light Snow,340,2014-04-04 09:48:00
5:08 AM,24.8,21.2,86,29.92,3.0,Calm,Calm,-,N/A,Snow,Light Snow,0,2014-04-04 10:08:00
5:27 AM,24.8,21.2,86,29.92,2.5,North,3.5,-,N/A,Snow,Light Snow,350,2014-04-04 10:27:00
5:48 AM,24.8,21.2,86,29.92,4.0,NNW,3.5,-,N/A,Snow,Light Snow,340,2014-04-04 10:48:00
6:07 AM,24.8,21.2,86,29.91,2.5,NNW,3.5,-,N/A,Snow,Light Snow,340,2014-04-04 11:07:00
6:28 AM,24.8,21.2,86,29.92,1.5,North,4.6,-,N/A,Snow,Light Snow,350,2014-04-04 11:28:00
6:48 AM,24.8,21.2,86,29.92,3.0,NNW,4.6,-,N/A,Snow,Light Snow,340,2014-04-04 11:48:00
7:07 AM,24.8,21.2,86,29.93,4.0,NNW,3.5,-,N/A,Snow,Light Snow,330,2014-04-04 12:07:00
7:28 AM,24.8,21.2,86,29.93,10.0,NNW,3.5,-,N/A,Snow,Light Snow,340,2014-04-04 12:28:00
7:48 AM,24.8,21.2,86,29.94,7.0,North,3.5,-,N/A,,Overcast,350,2014-04-04 12:48:00
8:08 AM,24.8,21.2,86,29.94,7.0,NNW,3.5,-,N/A,Snow,Light Snow,330,2014-04-04 13:08:00
8:28 AM,24.8,21.2,86,29.94,4.0,North,3.5,-,N/A,Snow,Light Snow,360,2014-04-04 13:28:00
8:48 AM,24.8,21.2,86,29.93,2.0,NNW,4.6,-,N/A,Snow,Light Snow,340,2014-04-04 13:48:00
9:08 AM,26.6,23.0,86,29.93,5.0,NNW,6.9,-,N/A,Snow,Light Snow,340,2014-04-04 14:08:00
9:28 AM,26.6,24.8,93,29.93,2.0,NNW,3.5,-,N/A,Snow,Light Snow,340,2014-04-04 14:28:00
9:48 AM,28.4,24.8,86,29.92,2.5,North,6.9,-,N/A,Snow,Light Snow,350,2014-04-04 14:48:00
10:08 AM,28.4,24.8,86,29.93,7.0,NNW,4.6,-,N/A,,Overcast,330,2014-04-04 15:08:00
10:27 AM,28.4,24.8,86,29.93,10.0,NNW,8.1,-,N/A,,Overcast,340,2014-04-04 15:27:00
10:48 AM,28.4,24.8,86,29.92,10.0,North,8.1,-,N/A,,Overcast,350,2014-04-04 15:48:00
11:08 AM,30.2,24.8,80,29.91,10.0,North,9.2,16.1,N/A,,Overcast,360,2014-04-04 16:08:00
11:28 AM,32.0,24.8,75,29.90,10.0,North,9.2,-,N/A,,Overcast,350,2014-04-04 16:28:00
11:48 AM,33.8,24.8,70,29.90,10.0,North,8.1,-,N/A,,Overcast,350,2014-04-04 16:48:00
12:08 PM,33.8,23.0,65,29.90,10.0,North,8.1,-,N/A,,Mostly Cloudy,360,2014-04-04 17:08:00
12:28 PM,35.6,21.2,56,29.90,10.0,North,11.5,-,N/A,,Scattered Clouds,350,2014-04-04 17:28:00
12:47 PM,37.4,21.2,52,29.89,10.0,North,12.7,-,N/A,,Scattered Clouds,350,2014-04-04 17:47:00
1:07 PM,39.2,21.2,49,29.88,10.0,North,8.1,-,N/A,,Scattered Clouds,10,2014-04-04 18:07:00
1:48 PM,41.0,19.4,42,29.87,10.0,NW,11.5,18.4,N/A,,Scattered Clouds,320,2014-04-04 18:48:00
2:08 PM,42.8,19.4,39,29.87,10.0,NNW,10.4,19.6,N/A,,Scattered Clouds,330,2014-04-04 19:08:00
2:28 PM,42.8,17.6,36,29.87,10.0,North,10.4,20.7,N/A,,Mostly Cloudy,350,2014-04-04 19:28:00
2:48 PM,42.8,17.6,36,29.87,10.0,NW,13.8,21.9,N/A,,Overcast,320,2014-04-04 19:48:00
3:08 PM,41.0,15.8,36,29.87,10.0,North,8.1,17.3,N/A,,Mostly Cloudy,350,2014-04-04 20:08:00
3:29 PM,42.8,14.0,31,29.87,10.0,North,9.2,16.1,N/A,,Clear,360,2014-04-04 20:29:00
3:48 PM,42.8,12.2,29,29.87,10.0,North,8.1,16.1,N/A,,Clear,360,2014-04-04 20:48:00
4:08 PM,42.8,12.2,29,29.88,10.0,North,6.9,-,N/A,,Clear,350,2014-04-04 21:08:00
4:27 PM,42.8,12.2,29,29.89,10.0,NW,11.5,17.3,N/A,,Clear,320,2014-04-04 21:27:00
4:48 PM,42.8,14.0,31,29.90,10.0,NNW,6.9,-,N/A,,Scattered Clouds,330,2014-04-04 21:48:00
5:08 PM,42.8,12.2,29,29.90,10.0,NNW,8.1,-,N/A,,Mostly Cloudy,330,2014-04-04 22:08:00
5:27 PM,42.8,12.2,29,29.91,10.0,NNW,5.8,-,N/A,,Overcast,340,2014-04-04 22:27:00
5:47 PM,41.0,12.2,31,29.92,10.0,NNW,8.1,-,N/A,,Overcast,330,2014-04-04 22:47:00
6:08 PM,37.4,12.2,36,29.92,10.0,NNW,5.8,-,N/A,,Overcast,330,2014-04-04 23:08:00
6:27 PM,37.4,15.8,41,29.93,10.0,NNW,4.6,-,N/A,,Overcast,330,2014-04-04 23:27:00
6:48 PM,35.6,15.8,44,29.93,10.0,NNW,5.8,-,N/A,,Mostly Cloudy,330,2014-04-04 23:48:00
7:08 PM,35.6,15.8,44,29.94,10.0,NNW,4.6,-,N/A,,Mostly Cloudy,340,2014-04-05 00:08:00
7:28 PM,33.8,14.0,44,29.94,10.0,Calm,Calm,-,N/A,,Scattered Clouds,0,2014-04-05 00:28:00
7:48 PM,28.4,12.2,51,29.95,10.0,Calm,Calm,-,N/A,,Scattered Clouds,0,2014-04-05 00:48:00
8:08 PM,26.6,10.4,51,29.95,10.0,Calm,Calm,-,N/A,,Clear,0,2014-04-05 01:08:00
8:28 PM,24.8,10.4,54,29.96,10.0,Calm,Calm,-,N/A,,Clear,0,2014-04-05 01:28:00
8:48 PM,23.0,12.2,63,29.96,10.0,Calm,Calm,-,N/A,,Clear,0,2014-04-05 01:48:00
9:07 PM,21.2,10.4,63,29.97,10.0,Calm,Calm,-,N/A,,Clear,0,2014-04-05 02:07:00
9:27 PM,21.2,10.4,63,29.97,10.0,Calm,Calm,-,N/A,,Clear,0,2014-04-05 02:27:00
9:48 PM,19.4,12.2,74,29.97,10.0,Calm,Calm,-,N/A,,Clear,0,2014-04-05 02:48:00
10:07 PM,19.4,12.2,74,29.96,10.0,Calm,Calm,-,N/A,,Clear,0,2014-04-05 03:07:00
10:28 PM,17.6,12.2,79,29.97,10.0,Calm,Calm,-,N/A,,Clear,0,2014-04-05 03:28:00
10:47 PM,17.6,12.2,79,29.97,10.0,Calm,Calm,-,N/A,,Clear,0,2014-04-05 03:47:00
11:08 PM,17.6,12.2,79,29.97,10.0,Calm,Calm,-,N/A,,Clear,0,2014-04-05 04:08:00
11:28 PM,17.6,12.2,79,29.97,10.0,Calm,Calm,-,N/A,,Clear,0,2014-04-05 04:28:00
11:48 PM,15.8,10.4,79,29.97,10.0,Calm,Calm,-,N/A,,Clear,0,2014-04-05 04:48:00